Time,TemperatureF,DewpointF,PressureIn,WindDirection,WindDirectionDegrees,WindSpeedMPH,WindSpeedGustMPH,Humidity,HourlyPrecipIn,Conditions,Clouds,dailyrainin,SoftwareType,DateUTC
2013-05-02 00:00:00,59.4,49.2,30.36,SSW,202,0.0,0.0,69,0.00,,,0.00,WUHU21523XXSP,2013-05-02 04:00:00,
2013-05-02 00:05:00,59.2,49.0,30.36,SW,225,0.0,0.0,69,0.00,,,0.00,WUHU21523XXSP,2013-05-02 04:05:00,
2013-05-02 00:10:00,59.2,49.0,30.36,SSW,202,0.0,0.0,69,0.00,,,0.00,WUHU21523XXSP,2013-05-02 04:10:00,
2013-05-02 00:15:00,59.2,49.0,30.36,ENE,67,3.8,3.8,69,0.00,,,0.00,WUHU21523XXSP,2013-05-02 04:15:00,
2013-05-02 00:20:00,59.0,48.9,30.36,South,180,0.4,3.8,69,0.00,,,0.00,WUHU21523XXSP,2013-05-02 04:20:00,
2013-05-02 00:25:00,58.8,48.7,30.36,NW,315,0.0,0.4,69,0.00,,,0.00,WUHU21523XXSP,2013-05-02 04:25:00,
2013-05-02 00:30:00,58.8,48.7,30.36,SSW,202,0.0,0.0,69,0.00,,,0.00,WUHU21523XXSP,2013-05-02 04:30:00,
2013-05-02 00:35:00,58.8,48.7,30.36,SSW,202,0.0,0.0,69,0.00,,,0.00,WUHU21523XXSP,2013-05-02 04:35:00,
2013-05-02 00:40:00,58.8,48.7,30.36,NE,45,0.0,0.0,69,0.00,,,0.00,WUHU21523XXSP,2013-05-02 04:40:00,
2013-05-02 00:45:00,58.8,48.7,30.36,SSW,202,0.0,0.0,69,0.00,,,0.00,WUHU21523XXSP,2013-05-02 04:45:00,
2013-05-02 00:50:00,58.8,48.7,30.36,WSW,247,2.5,2.5,69,0.00,,,0.00,WUHU21523XXSP,2013-05-02 04:50:00,
2013-05-02 00:55:00,58.8,48.3,30.36,East,90,0.0,2.5,68,0.00,,,0.00,WUHU21523XXSP,2013-05-02 04:55:00,
2013-05-02 01:00:00,58.6,48.1,30.36,ENE,67,11.9,11.9,68,0.00,,,0.00,WUHU21523XXSP,2013-05-02 05:00:00,
2013-05-02 01:05:00,58.6,48.1,30.36,ENE,67,11.9,11.9,68,0.00,,,0.00,WUHU21523XXSP,2013-05-02 05:05:00,
2013-05-02 01:10:00,58.6,48.1,30.36,SW,225,0.0,11.9,68,0.00,,,0.00,WUHU21523XXSP,2013-05-02 05:10:00,
2013-05-02 01:15:00,58.5,47.9,30.36,East,90,0.0,0.0,68,0.00,,,0.00,WUHU21523XXSP,2013-05-02 05:15:00,
2013-05-02 01:20:00,58.5,47.5,30.36,SW,225,0.0,0.0,67,0.00,,,0.00,WUHU21523XXSP,2013-05-02 05:20:00,
2013-05-02 01:25:00,58.3,47.3,30.36,WSW,247,0.0,0.0,67,0.00,,,0.00,WUHU21523XXSP,2013-05-02 05:25:00,
2013-05-02 01:30:00,58.3,47.3,30.36,North,0,0.0,0.0,67,0.00,,,0.00,WUHU21523XXSP,2013-05-02 05:30:00,
2013-05-02 01:35:00,58.3,46.9,30.36,ESE,112,0.0,0.0,66,0.00,,,0.00,WUHU21523XXSP,2013-05-02 05:35:00,
2013-05-02 01:40:00,58.1,46.8,30.36,SE,135,0.0,0.0,66,0.00,,,0.00,WUHU21523XXSP,2013-05-02 05:40:00,
2013-05-02 01:45:00,57.9,46.6,30.36,SSW,202,0.0,0.0,66,0.00,,,0.00,WUHU21523XXSP,2013-05-02 05:45:00,
2013-05-02 01:50:00,57.9,46.6,30.36,SSW,202,0.0,0.0,66,0.00,,,0.00,WUHU21523XXSP,2013-05-02 05:50:00,
2013-05-02 01:55:00,57.9,46.6,30.35,SSW,202,0.0,0.0,66,0.00,,,0.00,WUHU21523XXSP,2013-05-02 05:55:00,
2013-05-02 02:00:00,57.9,47.0,30.35,WSW,247,0.0,0.0,67,0.00,,,0.00,WUHU21523XXSP,2013-05-02 06:00:00,
2013-05-02 02:05:00,57.7,46.4,30.35,WSW,247,0.0,0.0,66,0.00,,,0.00,WUHU21523XXSP,2013-05-02 06:05:00,
2013-05-02 02:10:00,57.7,46.4,30.35,WSW,247,0.0,0.0,66,0.00,,,0.00,WUHU21523XXSP,2013-05-02 06:10:00,
2013-05-02 02:15:00,57.7,46.4,30.35,WSW,247,0.0,0.0,66,0.00,,,0.00,WUHU21523XXSP,2013-05-02 06:15:00,
2013-05-02 02:20:00,57.7,46.4,30.35,SW,225,0.0,0.0,66,0.00,,,0.00,WUHU21523XXSP,2013-05-02 06:20:00,
2013-05-02 02:25:00,57.7,46.4,30.35,SW,225,0.0,0.0,66,0.00,,,0.00,WUHU21523XXSP,2013-05-02 06:25:00,
2013-05-02 02:30:00,57.7,46.4,30.35,SW,225,0.0,0.0,67,0.00,,,0.00,WUHU21523XXSP,2013-05-02 06:30:00,
2013-05-02 02:35:00,57.6,46.6,30.35,SW,225,0.0,0.0,67,0.00,,,0.00,WUHU21523XXSP,2013-05-02 06:35:00,
2013-05-02 02:40:00,57.6,46.2,30.35,SSW,202,0.0,0.0,66,0.00,,,0.00,WUHU21523XXSP,2013-05-02 06:40:00,
2013-05-02 02:45:00,57.4,45.7,30.35,SSW,202,0.0,0.0,65,0.00,,,0.00,WUHU21523XXSP,2013-05-02 06:45:00,
2013-05-02 02:50:00,57.4,45.7,30.35,SSW,202,0.0,0.0,65,0.00,,,0.00,WUHU21523XXSP,2013-05-02 06:50:00,
2013-05-02 02:55:00,57.4,45.7,30.35,SSW,202,0.0,0.0,65,0.00,,,0.00,WUHU21523XXSP,2013-05-02 06:55:00,
2013-05-02 03:00:00,57.4,45.7,30.34,SSW,202,0.0,0.0,65,0.00,,,0.00,WUHU21523XXSP,2013-05-02 07:00:00,
2013-05-02 03:05:00,57.2,45.1,30.34,SSW,202,0.0,0.0,64,0.00,,,0.00,WUHU21523XXSP,2013-05-02 07:05:00,
2013-05-02 03:10:00,57.0,45.3,30.34,SSW,202,0.0,0.0,65,0.00,,,0.00,WUHU21523XXSP,2013-05-02 07:10:00,
2013-05-02 03:15:00,57.0,44.9,30.34,South,180,0.0,0.0,64,0.00,,,0.00,WUHU21523XXSP,2013-05-02 07:15:00,
2013-05-02 03:20:00,57.0,44.9,30.34,South,180,1.6,1.6,64,0.00,,,0.00,WUHU21523XXSP,2013-05-02 07:20:00,
2013-05-02 03:25:00,57.0,44.9,30.34,South,180,0.0,1.6,64,0.00,,,0.00,WUHU21523XXSP,2013-05-02 07:25:00,
2013-05-02 03:30:00,57.0,44.9,30.34,South,180,0.0,0.0,64,0.00,,,0.00,WUHU21523XXSP,2013-05-02 07:30:00,
2013-05-02 03:35:00,57.0,44.9,30.34,South,180,0.0,0.0,64,0.00,,,0.00,WUHU21523XXSP,2013-05-02 07:35:00,
2013-05-02 03:40:00,57.0,44.5,30.34,South,180,0.0,0.0,63,0.00,,,0.00,WUHU21523XXSP,2013-05-02 07:40:00,
2013-05-02 03:45:00,57.0,44.5,30.34,South,180,0.0,0.0,63,0.00,,,0.00,WUHU21523XXSP,2013-05-02 07:45:00,
2013-05-02 03:50:00,56.8,44.3,30.34,South,180,0.0,0.0,63,0.00,,,0.00,WUHU21523XXSP,2013-05-02 07:50:00,
2013-05-02 03:55:00,56.8,44.3,30.34,South,180,0.0,0.0,64,0.00,,,0.00,WUHU21523XXSP,2013-05-02 07:55:00,
2013-05-02 04:00:00,56.8,44.7,30.34,South,180,0.0,0.0,64,0.00,,,0.00,WUHU21523XXSP,2013-05-02 08:00:00,
2013-05-02 04:05:00,57.0,44.9,30.34,South,180,0.0,0.0,64,0.00,,,0.00,WUHU21523XXSP,2013-05-02 08:05:00,
2013-05-02 04:10:00,56.8,44.7,30.34,South,180,0.0,0.0,64,0.00,,,0.00,WUHU21523XXSP,2013-05-02 08:10:00,
2013-05-02 04:15:00,56.8,44.7,30.34,South,180,0.0,0.0,64,0.00,,,0.00,WUHU21523XXSP,2013-05-02 08:15:00,
2013-05-02 04:20:00,56.8,44.7,30.33,South,180,0.0,0.0,64,0.00,,,0.00,WUHU21523XXSP,2013-05-02 08:20:00,
2013-05-02 04:25:00,56.8,45.2,30.33,South,180,0.0,0.0,65,0.00,,,0.00,WUHU21523XXSP,2013-05-02 08:25:00,
2013-05-02 04:30:00,56.8,45.2,30.33,South,180,0.0,0.0,65,0.00,,,0.00,WUHU21523XXSP,2013-05-02 08:30:00,
2013-05-02 04:35:00,56.8,45.2,30.33,South,180,0.0,0.0,65,0.00,,,0.00,WUHU21523XXSP,2013-05-02 08:35:00,
2013-05-02 04:40:00,56.8,45.2,30.33,South,180,0.0,0.0,65,0.00,,,0.00,WUHU21523XXSP,2013-05-02 08:40:00,
2013-05-02 04:45:00,56.8,45.2,30.33,South,180,0.0,0.0,65,0.00,,,0.00,WUHU21523XXSP,2013-05-02 08:45:00,
2013-05-02 04:50:00,56.8,45.2,30.33,South,180,0.0,0.0,65,0.00,,,0.00,WUHU21523XXSP,2013-05-02 08:50:00,
2013-05-02 04:55:00,56.8,45.2,30.33,South,180,0.0,0.0,65,0.00,,,0.00,WUHU21523XXSP,2013-05-02 08:55:00,
2013-05-02 05:00:00,56.7,45.0,30.33,South,180,0.0,0.0,65,0.00,,,0.00,WUHU21523XXSP,2013-05-02 09:00:00,
2013-05-02 05:05:00,56.7,45.0,30.34,South,180,0.0,0.0,65,0.00,,,0.00,WUHU21523XXSP,2013-05-02 09:05:00,
2013-05-02 05:10:00,56.5,45.2,30.33,South,180,0.0,0.0,66,0.00,,,0.00,WUHU21523XXSP,2013-05-02 09:10:00,
2013-05-02 05:15:00,56.5,45.2,30.33,South,180,0.0,0.0,66,0.00,,,0.00,WUHU21523XXSP,2013-05-02 09:15:00,
2013-05-02 05:20:00,56.5,45.2,30.34,South,180,0.0,0.0,66,0.00,,,0.00,WUHU21523XXSP,2013-05-02 09:20:00,
2013-05-02 05:25:00,56.5,45.2,30.34,South,180,0.0,0.0,66,0.00,,,0.00,WUHU21523XXSP,2013-05-02 09:25:00,
2013-05-02 05:30:00,56.5,45.2,30.34,South,180,0.0,0.0,66,0.00,,,0.00,WUHU21523XXSP,2013-05-02 09:30:00,
2013-05-02 05:35:00,56.5,45.2,30.34,South,180,0.0,0.0,66,0.00,,,0.00,WUHU21523XXSP,2013-05-02 09:35:00,
2013-05-02 05:40:00,56.5,45.2,30.33,South,180,0.0,0.0,66,0.00,,,0.00,WUHU21523XXSP,2013-05-02 09:40:00,
2013-05-02 05:45:00,56.5,45.6,30.33,South,180,0.0,0.0,67,0.00,,,0.00,WUHU21523XXSP,2013-05-02 09:45:00,
2013-05-02 05:50:00,56.5,45.6,30.33,South,180,0.0,0.0,67,0.00,,,0.00,WUHU21523XXSP,2013-05-02 09:50:00,
2013-05-02 05:55:00,56.5,45.2,30.33,South,180,0.0,0.0,66,0.00,,,0.00,WUHU21523XXSP,2013-05-02 09:55:00,
2013-05-02 06:00:00,56.3,45.0,30.33,South,180,0.0,0.0,66,0.00,,,0.00,WUHU21523XXSP,2013-05-02 10:00:00,
2013-05-02 06:05:00,56.5,45.6,30.33,South,180,0.0,0.0,67,0.00,,,0.00,WUHU21523XXSP,2013-05-02 10:05:00,
2013-05-02 06:10:00,56.5,45.2,30.34,South,180,0.0,0.0,66,0.00,,,0.00,WUHU21523XXSP,2013-05-02 10:10:00,
2013-05-02 06:15:00,56.3,45.0,30.34,South,180,0.0,0.0,66,0.00,,,0.00,WUHU21523XXSP,2013-05-02 10:15:00,
2013-05-02 06:20:00,56.3,45.0,30.34,South,180,0.0,0.0,66,0.00,,,0.00,WUHU21523XXSP,2013-05-02 10:20:00,
2013-05-02 06:25:00,56.1,44.9,30.34,SSW,202,0.0,0.0,66,0.00,,,0.00,WUHU21523XXSP,2013-05-02 10:25:00,
2013-05-02 06:30:00,56.3,45.0,30.34,South,180,0.0,0.0,66,0.00,,,0.00,WUHU21523XXSP,2013-05-02 10:30:00,
2013-05-02 06:35:00,56.3,45.0,30.34,NE,45,0.0,0.0,66,0.00,,,0.00,WUHU21523XXSP,2013-05-02 10:35:00,
2013-05-02 06:40:00,56.3,45.0,30.34,ESE,112,0.0,0.0,66,0.00,,,0.00,WUHU21523XXSP,2013-05-02 10:40:00,
2013-05-02 06:45:00,56.3,45.0,30.34,WSW,247,0.0,0.0,66,0.00,,,0.00,WUHU21523XXSP,2013-05-02 10:45:00,
2013-05-02 06:50:00,56.1,44.9,30.34,ESE,112,0.0,0.0,66,0.00,,,0.00,WUHU21523XXSP,2013-05-02 10:50:00,
2013-05-02 06:55:00,56.1,44.9,30.34,WNW,292,0.0,0.0,66,0.00,,,0.00,WUHU21523XXSP,2013-05-02 10:55:00,
2013-05-02 07:00:00,56.3,45.0,30.33,ESE,112,0.0,0.0,66,0.00,,,0.00,WUHU21523XXSP,2013-05-02 11:00:00,
2013-05-02 07:05:00,56.1,44.9,30.33,SSW,202,5.1,5.1,66,0.00,,,0.00,WUHU21523XXSP,2013-05-02 11:05:00,
2013-05-02 07:10:00,56.1,44.9,30.34,SE,135,0.0,5.1,66,0.00,,,0.00,WUHU21523XXSP,2013-05-02 11:10:00,
2013-05-02 07:15:00,56.1,44.9,30.34,ESE,108,6.0,11.4,66,0.00,,,0.00,WUHU21523XXSP,2013-05-02 11:15:00,
2013-05-02 07:20:00,56.1,44.9,30.34,WNW,292,0.0,11.4,66,0.00,,,0.00,WUHU21523XXSP,2013-05-02 11:20:00,
2013-05-02 07:25:00,56.1,44.9,30.34,South,180,1.3,1.3,66,0.00,,,0.00,WUHU21523XXSP,2013-05-02 11:25:00,
2013-05-02 07:30:00,56.1,44.9,30.35,SSW,202,0.0,1.3,66,0.00,,,0.00,WUHU21523XXSP,2013-05-02 11:30:00,
2013-05-02 07:35:00,56.3,45.0,30.34,South,180,1.1,1.1,66,0.00,,,0.00,WUHU21523XXSP,2013-05-02 11:35:00,
2013-05-02 07:40:00,56.3,45.0,30.35,South,180,0.0,1.1,66,0.00,,,0.00,WUHU21523XXSP,2013-05-02 11:40:00,
2013-05-02 07:45:00,56.3,45.0,30.35,South,180,0.0,1.1,66,0.00,,,0.00,WUHU21523XXSP,2013-05-02 11:45:00,
2013-05-02 07:50:00,56.3,45.0,30.35,SSE,157,0.0,0.0,66,0.00,,,0.00,WUHU21523XXSP,2013-05-02 11:50:00,
2013-05-02 07:55:00,56.5,45.6,30.35,South,180,0.0,0.0,67,0.00,,,0.00,WUHU21523XXSP,2013-05-02 11:55:00,
2013-05-02 08:00:00,56.5,45.6,30.35,SSW,202,0.0,0.0,67,0.00,,,0.00,WUHU21523XXSP,2013-05-02 12:00:00,
2013-05-02 08:05:00,56.5,45.6,30.35,SSW,202,0.0,0.0,67,0.00,,,0.00,WUHU21523XXSP,2013-05-02 12:05:00,
2013-05-02 08:10:00,56.5,45.6,30.35,South,180,0.0,0.0,67,0.00,,,0.00,WUHU21523XXSP,2013-05-02 12:10:00,
2013-05-02 08:15:00,56.5,45.6,30.35,SSW,202,0.0,0.0,67,0.00,,,0.00,WUHU21523XXSP,2013-05-02 12:15:00,
2013-05-02 08:20:00,56.8,46.0,30.36,SSW,202,0.0,0.0,67,0.00,,,0.00,WUHU21523XXSP,2013-05-02 12:20:00,
2013-05-02 08:25:00,56.8,46.0,30.36,NNE,22,0.0,0.0,67,0.00,,,0.00,WUHU21523XXSP,2013-05-02 12:25:00,
2013-05-02 08:30:00,56.8,46.0,30.36,NNE,22,0.0,0.0,67,0.00,,,0.00,WUHU21523XXSP,2013-05-02 12:30:00,
2013-05-02 08:35:00,57.0,46.1,30.36,NNE,22,0.0,0.0,67,0.00,,,0.00,WUHU21523XXSP,2013-05-02 12:35:00,
2013-05-02 08:40:00,57.0,46.1,30.36,NNE,22,0.0,0.0,67,0.00,,,0.00,WUHU21523XXSP,2013-05-02 12:40:00,
2013-05-02 08:45:00,57.0,45.7,30.36,NNE,22,0.0,0.0,66,0.00,,,0.00,WUHU21523XXSP,2013-05-02 12:45:00,
2013-05-02 08:50:00,57.0,46.1,30.35,NNE,22,0.0,0.0,67,0.00,,,0.00,WUHU21523XXSP,2013-05-02 12:50:00,
2013-05-02 08:55:00,57.4,46.1,30.36,South,180,0.0,0.0,66,0.00,,,0.00,WUHU21523XXSP,2013-05-02 12:55:00,
2013-05-02 09:00:00,57.4,45.7,30.35,South,180,0.0,0.0,65,0.00,,,0.00,WUHU21523XXSP,2013-05-02 13:00:00,
2013-05-02 09:05:00,57.6,45.8,30.35,South,180,0.0,0.0,65,0.00,,,0.00,WUHU21523XXSP,2013-05-02 13:05:00,
2013-05-02 09:10:00,57.6,45.8,30.35,South,180,2.0,2.0,65,0.00,,,0.00,WUHU21523XXSP,2013-05-02 13:10:00,
2013-05-02 09:15:00,57.7,46.0,30.35,South,180,0.0,2.0,65,0.00,,,0.00,WUHU21523XXSP,2013-05-02 13:15:00,
2013-05-02 09:20:00,57.9,46.2,30.35,East,90,0.0,0.0,65,0.00,,,0.00,WUHU21523XXSP,2013-05-02 13:20:00,
2013-05-02 09:30:00,58.3,46.1,30.36,SSW,202,0.0,0.0,64,0.00,,,0.00,WUHU21523XXSP,2013-05-02 13:30:00,
2013-05-02 09:35:00,58.6,46.5,30.35,ENE,67,0.0,0.0,64,0.00,,,0.00,WUHU21523XXSP,2013-05-02 13:35:00,
2013-05-02 09:40:00,58.6,46.5,30.35,SE,135,0.0,0.0,64,0.00,,,0.00,WUHU21523XXSP,2013-05-02 13:40:00,
2013-05-02 09:45:00,58.8,46.6,30.35,South,180,3.6,16.6,64,0.00,,,0.00,WUHU21523XXSP,2013-05-02 13:45:00,
2013-05-02 09:50:00,59.2,47.0,30.35,ENE,67,1.1,16.6,64,0.00,,,0.00,WUHU21523XXSP,2013-05-02 13:50:00,
2013-05-02 09:55:00,59.4,47.2,30.35,SSW,202,0.0,1.1,64,0.00,,,0.00,WUHU21523XXSP,2013-05-02 13:55:00,
2013-05-02 10:00:00,59.5,47.3,30.35,NNE,22,1.1,5.6,64,0.00,,,0.00,WUHU21523XXSP,2013-05-02 14:00:00,
2013-05-02 10:05:00,59.7,47.3,30.35,SSW,202,0.0,5.6,64,0.00,,,0.00,WUHU21523XXSP,2013-05-02 14:05:00,
2013-05-02 10:10:00,59.7,47.5,30.35,SSE,157,0.0,3.4,64,0.00,,,0.00,WUHU21523XXSP,2013-05-02 14:10:00,
2013-05-02 10:15:00,60.1,47.5,30.35,SSE,157,8.9,8.9,63,0.00,,,0.00,WUHU21523XXSP,2013-05-02 14:15:00,
2013-05-02 10:20:00,60.4,48.2,30.35,South,180,20.8,20.8,64,0.00,,,0.00,WUHU21523XXSP,2013-05-02 14:20:00,
2013-05-02 10:25:00,60.6,48.2,30.35,South,180,0.0,20.8,64,0.00,,,0.00,WUHU21523XXSP,2013-05-02 14:25:00,
2013-05-02 10:30:00,60.6,48.4,30.35,SSW,202,1.8,20.8,64,0.00,,,0.00,WUHU21523XXSP,2013-05-02 14:30:00,
2013-05-02 10:35:00,61.0,49.2,30.35,SE,135,0.0,1.8,65,0.00,,,0.00,WUHU21523XXSP,2013-05-02 14:35:00,
2013-05-02 10:40:00,61.0,49.2,30.35,NNW,337,0.0,0.0,64,0.00,,,0.00,WUHU21523XXSP,2013-05-02 14:40:00,
2013-05-02 10:45:00,61.2,48.8,30.35,NNW,337,0.0,0.0,64,0.00,,,0.00,WUHU21523XXSP,2013-05-02 14:45:00,
2013-05-02 10:50:00,61.2,48.5,30.35,SSE,157,0.0,0.0,64,0.00,,,0.00,WUHU21523XXSP,2013-05-02 14:50:00,
2013-05-02 10:55:00,61.2,48.9,30.35,NNE,22,0.0,0.0,64,0.00,,,0.00,WUHU21523XXSP,2013-05-02 14:55:00,
2013-05-02 11:00:00,61.2,48.5,30.35,SW,225,0.0,0.0,63,0.00,,,0.00,WUHU21523XXSP,2013-05-02 15:00:00,
2013-05-02 11:05:00,61.3,49.1,30.35,SSE,157,0.0,0.0,64,0.00,,,0.00,WUHU21523XXSP,2013-05-02 15:05:00,
2013-05-02 11:15:00,61.5,49.2,30.35,SSW,202,0.4,0.4,64,0.00,,,0.00,WUHU21523XXSP,2013-05-02 15:15:00,
2013-05-02 11:20:00,61.5,49.2,30.36,SSW,202,0.9,2.2,64,0.00,,,0.00,WUHU21523XXSP,2013-05-02 15:20:00,
2013-05-02 11:25:00,61.5,49.7,30.36,East,90,0.0,2.2,65,0.00,,,0.00,WUHU21523XXSP,2013-05-02 15:25:00,
2013-05-02 11:30:00,61.7,49.8,30.36,South,180,0.0,0.9,65,0.00,,,0.00,WUHU21523XXSP,2013-05-02 15:30:00,
2013-05-02 11:35:00,61.9,50.0,30.36,South,180,0.0,0.0,65,0.00,,,0.00,WUHU21523XXSP,2013-05-02 15:35:00,
2013-05-02 11:40:00,61.9,50.0,30.36,ENE,67,0.0,0.0,65,0.00,,,0.00,WUHU21523XXSP,2013-05-02 15:40:00,
2013-05-02 11:45:00,62.1,50.1,30.36,East,90,0.0,0.0,65,0.00,,,0.00,WUHU21523XXSP,2013-05-02 15:45:00,
2013-05-02 11:50:00,62.2,50.3,30.36,SSW,202,13.9,13.9,65,0.00,,,0.00,WUHU21523XXSP,2013-05-02 15:50:00,
2013-05-02 11:55:00,62.4,50.5,30.36,East,90,0.0,13.9,65,0.00,,,0.00,WUHU21523XXSP,2013-05-02 15:55:00,
2013-05-02 12:00:00,62.4,50.5,30.36,SSW,202,0.0,0.0,65,0.00,,,0.00,WUHU21523XXSP,2013-05-02 16:00:00,
2013-05-02 12:05:00,62.4,50.5,30.36,SSE,157,0.0,0.0,65,0.00,,,0.00,WUHU21523XXSP,2013-05-02 16:05:00,
2013-05-02 12:10:00,62.4,50.5,30.36,ENE,67,0.0,0.4,65,0.00,,,0.00,WUHU21523XXSP,2013-05-02 16:10:00,
2013-05-02 12:15:00,62.4,50.5,30.36,East,90,8.1,8.1,65,0.00,,,0.00,WUHU21523XXSP,2013-05-02 16:15:00,
2013-05-02 12:20:00,62.6,50.6,30.36,SSW,202,0.0,8.1,65,0.00,,,0.00,WUHU21523XXSP,2013-05-02 16:20:00,
2013-05-02 12:25:00,62.8,50.8,30.35,ENE,67,0.9,0.9,65,0.00,,,0.00,WUHU21523XXSP,2013-05-02 16:25:00,
2013-05-02 12:30:00,63.1,51.1,30.35,SSW,202,0.0,0.9,65,0.00,,,0.00,WUHU21523XXSP,2013-05-02 16:30:00,
2013-05-02 12:35:00,63.5,51.5,30.35,NE,45,0.0,0.9,65,0.00,,,0.00,WUHU21523XXSP,2013-05-02 16:35:00,
2013-05-02 12:40:00,64.0,52.0,30.34,ENE,67,0.0,0.0,65,0.00,,,0.00,WUHU21523XXSP,2013-05-02 16:40:00,
2013-05-02 12:45:00,64.2,52.6,30.34,West,270,0.0,0.0,66,0.00,,,0.00,WUHU21523XXSP,2013-05-02 16:45:00,
2013-05-02 12:50:00,64.6,52.5,30.34,NE,45,0.0,0.0,65,0.00,,,0.00,WUHU21523XXSP,2013-05-02 16:50:00,
2013-05-02 12:55:00,64.8,52.3,30.35,NNW,337,0.0,0.0,64,0.00,,,0.00,WUHU21523XXSP,2013-05-02 16:55:00,
2013-05-02 13:00:00,64.9,52.4,30.34,NNW,337,0.0,0.0,64,0.00,,,0.00,WUHU21523XXSP,2013-05-02 17:00:00,
2013-05-02 13:05:00,64.9,52.0,30.34,South,180,0.0,0.0,63,0.00,,,0.00,WUHU21523XXSP,2013-05-02 17:05:00,
2013-05-02 13:10:00,65.1,52.6,30.34,South,180,0.0,0.0,64,0.00,,,0.00,WUHU21523XXSP,2013-05-02 17:10:00,
2013-05-02 13:15:00,65.3,52.3,30.33,NE,45,0.0,0.0,63,0.00,,,0.00,WUHU21523XXSP,2013-05-02 17:15:00,
2013-05-02 13:20:00,65.3,51.9,30.34,NE,45,0.0,0.0,62,0.00,,,0.00,WUHU21523XXSP,2013-05-02 17:20:00,
2013-05-02 13:25:00,65.5,52.5,30.34,West,270,0.0,0.0,63,0.00,,,0.00,WUHU21523XXSP,2013-05-02 17:25:00,
2013-05-02 13:30:00,65.8,52.4,30.33,South,180,2.7,2.7,62,0.00,,,0.00,WUHU21523XXSP,2013-05-02 17:30:00,
2013-05-02 13:35:00,66.4,53.0,30.33,SSE,157,0.0,2.7,62,0.00,,,0.00,WUHU21523XXSP,2013-05-02 17:35:00,
2013-05-02 13:40:00,66.7,52.9,30.34,NE,45,0.0,0.0,61,0.00,,,0.00,WUHU21523XXSP,2013-05-02 17:40:00,
2013-05-02 13:45:00,67.1,53.6,30.34,SW,225,0.0,0.0,62,0.00,,,0.00,WUHU21523XXSP,2013-05-02 17:45:00,
2013-05-02 13:50:00,67.5,53.5,30.34,ENE,67,1.6,1.6,61,0.00,,,0.00,WUHU21523XXSP,2013-05-02 17:50:00,
2013-05-02 13:55:00,68.2,53.3,30.33,South,180,0.0,2.0,59,0.00,,,0.00,WUHU21523XXSP,2013-05-02 17:55:00,
2013-05-02 14:00:00,68.4,53.5,30.33,ENE,67,0.0,2.0,59,0.00,,,0.00,WUHU21523XXSP,2013-05-02 18:00:00,
2013-05-02 14:05:00,68.7,53.8,30.33,NE,45,0.0,0.0,59,0.00,,,0.00,WUHU21523XXSP,2013-05-02 18:05:00,
2013-05-02 14:10:00,69.1,53.2,30.33,NE,45,0.0,0.0,57,0.00,,,0.00,WUHU21523XXSP,2013-05-02 18:10:00,
2013-05-02 14:15:00,69.4,53.5,30.33,SSE,157,0.0,0.0,57,0.00,,,0.00,WUHU21523XXSP,2013-05-02 18:15:00,
2013-05-02 14:20:00,69.6,53.7,30.33,SW,225,0.0,0.0,57,0.00,,,0.00,WUHU21523XXSP,2013-05-02 18:20:00,
2013-05-02 14:25:00,70.2,54.2,30.33,SW,225,5.1,5.1,57,0.00,,,0.00,WUHU21523XXSP,2013-05-02 18:25:00,
2013-05-02 14:30:00,70.3,54.4,30.33,West,270,0.0,5.1,57,0.00,,,0.00,WUHU21523XXSP,2013-05-02 18:30:00,
2013-05-02 14:35:00,70.3,54.4,30.32,ENE,67,0.0,0.0,57,0.00,,,0.00,WUHU21523XXSP,2013-05-02 18:35:00,
2013-05-02 14:40:00,70.5,54.0,30.32,NE,45,3.6,3.6,56,0.00,,,0.00,WUHU21523XXSP,2013-05-02 18:40:00,
2013-05-02 14:45:00,70.5,54.0,30.32,SSE,157,0.0,3.6,56,0.00,,,0.00,WUHU21523XXSP,2013-05-02 18:45:00,
2013-05-02 14:50:00,70.7,54.7,30.32,NNE,22,0.0,0.0,57,0.00,,,0.00,WUHU21523XXSP,2013-05-02 18:50:00,
2013-05-02 14:55:00,71.1,55.0,30.31,SSW,202,3.1,3.1,57,0.00,,,0.00,WUHU21523XXSP,2013-05-02 18:55:00,
2013-05-02 15:00:00,71.2,55.2,30.31,South,180,0.0,3.1,57,0.00,,,0.00,WUHU21523XXSP,2013-05-02 19:00:00,
2013-05-02 15:05:00,71.4,54.8,30.31,NNE,22,0.7,0.7,56,0.00,,,0.00,WUHU21523XXSP,2013-05-02 19:05:00,
2013-05-02 15:10:00,71.2,54.2,30.31,SSW,202,0.0,4.0,55,0.00,,,0.00,WUHU21523XXSP,2013-05-02 19:10:00,
2013-05-02 15:15:00,71.2,54.7,30.31,East,90,0.0,4.0,56,0.00,,,0.00,WUHU21523XXSP,2013-05-02 19:15:00,
2013-05-02 15:20:00,71.2,54.7,30.31,North,0,0.0,0.0,56,0.00,,,0.00,WUHU21523XXSP,2013-05-02 19:20:00,
2013-05-02 15:25:00,71.4,54.8,30.30,ENE,67,0.0,0.0,56,0.00,,,0.00,WUHU21523XXSP,2013-05-02 19:25:00,
2013-05-02 15:30:00,71.4,54.3,30.30,ENE,67,0.4,1.6,55,0.00,,,0.00,WUHU21523XXSP,2013-05-02 19:30:00,
2013-05-02 15:35:00,71.4,54.3,30.30,SSW,202,0.0,1.6,55,0.00,,,0.00,WUHU21523XXSP,2013-05-02 19:35:00,
2013-05-02 15:40:00,71.2,54.2,30.30,SSW,202,4.3,4.3,55,0.00,,,0.00,WUHU21523XXSP,2013-05-02 19:40:00,
2013-05-02 15:45:00,70.9,53.9,30.29,SSE,157,4.9,4.9,55,0.00,,,0.00,WUHU21523XXSP,2013-05-02 19:45:00,
2013-05-02 15:50:00,70.9,54.4,30.29,ESE,122,0.9,4.9,56,0.00,,,0.00,WUHU21523XXSP,2013-05-02 19:50:00,
2013-05-02 15:55:00,70.5,54.0,30.29,NE,45,0.0,2.7,56,0.00,,,0.00,WUHU21523XXSP,2013-05-02 19:55:00,
2013-05-02 16:00:00,70.3,54.4,30.29,ENE,67,0.0,0.0,57,0.00,,,0.00,WUHU21523XXSP,2013-05-02 20:00:00,
2013-05-02 16:05:00,70.3,53.9,30.29,ENE,67,0.0,0.0,56,0.00,,,0.00,WUHU21523XXSP,2013-05-02 20:05:00,
2013-05-02 16:10:00,70.5,54.5,30.29,SSW,202,0.0,0.0,57,0.00,,,0.00,WUHU21523XXSP,2013-05-02 20:10:00,
2013-05-02 16:15:00,70.7,54.7,30.28,East,90,0.0,0.0,57,0.00,,,0.00,WUHU21523XXSP,2013-05-02 20:15:00,
2013-05-02 16:20:00,70.7,54.2,30.29,SSW,202,0.0,0.0,56,0.00,,,0.00,WUHU21523XXSP,2013-05-02 20:20:00,
2013-05-02 16:25:00,70.3,53.9,30.28,South,180,0.0,0.0,56,0.00,,,0.00,WUHU21523XXSP,2013-05-02 20:25:00,
2013-05-02 16:30:00,70.2,54.2,30.27,ESE,112,0.0,0.0,57,0.00,,,0.00,WUHU21523XXSP,2013-05-02 20:30:00,
2013-05-02 16:35:00,69.8,53.9,30.27,SSE,157,0.0,0.0,57,0.00,,,0.00,WUHU21523XXSP,2013-05-02 20:35:00,
2013-05-02 16:40:00,70.0,54.0,30.27,South,185,1.6,2.5,57,0.00,,,0.00,WUHU21523XXSP,2013-05-02 20:40:00,
2013-05-02 16:45:00,70.0,54.0,30.27,ENE,67,0.0,2.5,57,0.00,,,0.00,WUHU21523XXSP,2013-05-02 20:45:00,
2013-05-02 16:50:00,70.0,54.0,30.27,ENE,67,1.1,2.5,57,0.00,,,0.00,WUHU21523XXSP,2013-05-02 20:50:00,
2013-05-02 16:55:00,70.0,54.0,30.27,NE,45,0.0,1.1,57,0.00,,,0.00,WUHU21523XXSP,2013-05-02 20:55:00,
2013-05-02 17:00:00,69.8,53.9,30.27,West,270,0.0,0.0,57,0.00,,,0.00,WUHU21523XXSP,2013-05-02 21:00:00,
2013-05-02 17:05:00,69.6,54.2,30.27,SSW,202,0.0,0.0,58,0.00,,,0.00,WUHU21523XXSP,2013-05-02 21:05:00,
2013-05-02 17:10:00,69.6,53.7,30.27,South,180,1.1,1.1,57,0.00,,,0.00,WUHU21523XXSP,2013-05-02 21:10:00,
2013-05-02 17:15:00,69.6,53.7,30.27,NNW,337,0.0,1.1,57,0.00,,,0.00,WUHU21523XXSP,2013-05-02 21:15:00,
2013-05-02 17:20:00,69.4,53.7,30.27,East,90,0.4,0.4,58,0.00,,,0.00,WUHU21523XXSP,2013-05-02 21:20:00,
2013-05-02 17:25:00,69.4,54.0,30.27,East,90,0.4,0.4,58,0.00,,,0.00,WUHU21523XXSP,2013-05-02 21:25:00,
2013-05-02 17:30:00,69.3,54.0,30.27,SSW,202,0.0,0.4,58,0.00,,,0.00,WUHU21523XXSP,2013-05-02 21:30:00,
2013-05-02 17:35:00,69.3,53.9,30.26,SSW,202,0.0,0.4,58,0.00,,,0.00,WUHU21523XXSP,2013-05-02 21:35:00,
2013-05-02 17:40:00,69.1,53.7,30.26,SSE,157,0.0,0.0,58,0.00,,,0.00,WUHU21523XXSP,2013-05-02 21:40:00,
2013-05-02 17:45:00,69.1,53.7,30.26,South,180,0.0,0.0,58,0.00,,,0.00,WUHU21523XXSP,2013-05-02 21:45:00,
2013-05-02 17:50:00,68.9,53.5,30.27,South,173,2.0,2.7,58,0.00,,,0.00,WUHU21523XXSP,2013-05-02 21:50:00,
2013-05-02 17:55:00,68.7,53.3,30.26,South,180,2.7,2.7,58,0.00,,,0.00,WUHU21523XXSP,2013-05-02 21:55:00,
2013-05-02 18:00:00,68.7,53.3,30.26,WSW,247,0.0,2.7,58,0.00,,,0.00,WUHU21523XXSP,2013-05-02 22:00:00,
2013-05-02 18:05:00,68.4,53.0,30.26,South,180,0.0,0.0,58,0.00,,,0.00,WUHU21523XXSP,2013-05-02 22:05:00,
2013-05-02 18:10:00,68.2,53.5,30.26,South,180,0.0,0.0,59,0.00,,,0.00,WUHU21523XXSP,2013-05-02 22:10:00,
2013-05-02 18:15:00,68.2,53.3,30.26,West,270,0.4,0.4,59,0.00,,,0.00,WUHU21523XXSP,2013-05-02 22:15:00,
2013-05-02 18:20:00,67.8,53.0,30.26,SSE,157,0.0,0.4,59,0.00,,,0.00,WUHU21523XXSP,2013-05-02 22:20:00,
2013-05-02 18:25:00,67.8,53.0,30.26,SW,225,0.0,0.0,59,0.00,,,0.00,WUHU21523XXSP,2013-05-02 22:25:00,
2013-05-02 18:30:00,67.6,52.8,30.26,ENE,71,7.9,16.8,59,0.00,,,0.00,WUHU21523XXSP,2013-05-02 22:30:00,
2013-05-02 18:35:00,67.3,52.0,30.26,WNW,292,11.6,22.8,58,0.00,,,0.00,WUHU21523XXSP,2013-05-02 22:35:00,
2013-05-02 18:40:00,67.1,52.3,30.25,South,180,0.0,22.8,59,0.00,,,0.00,WUHU21523XXSP,2013-05-02 22:40:00,
2013-05-02 18:49:00,66.9,52.1,30.26,WSW,247,0.0,0.0,59,0.00,,,0.00,WUHU21523XXSP,2013-05-02 22:49:00,
2013-05-02 18:54:00,66.7,52.0,30.26,SW,225,12.8,12.8,59,0.00,,,0.00,WUHU21523XXSP,2013-05-02 22:54:00,
2013-05-02 18:59:00,66.7,52.0,30.26,South,180,18.1,18.1,59,0.00,,,0.00,WUHU21523XXSP,2013-05-02 22:59:00,
2013-05-02 19:04:00,66.6,51.3,30.26,South,180,21.7,27.1,58,0.00,,,0.00,WUHU21523XXSP,2013-05-02 23:04:00,
2013-05-02 19:09:00,66.4,51.2,30.26,WSW,247,0.0,27.1,58,0.00,,,0.00,WUHU21523XXSP,2013-05-02 23:09:00,
2013-05-02 19:14:00,66.2,51.0,30.26,SSW,202,0.0,17.2,58,0.00,,,0.00,WUHU21523XXSP,2013-05-02 23:14:00,
2013-05-02 19:19:00,66.0,50.3,30.26,SW,225,23.3,30.9,57,0.00,,,0.00,WUHU21523XXSP,2013-05-02 23:19:00,
2013-05-02 19:24:00,65.8,50.2,30.26,NE,45,12.3,30.9,57,0.00,,,0.00,WUHU21523XXSP,2013-05-02 23:24:00,
2013-05-02 19:29:00,65.8,50.2,30.26,ENE,67,21.5,23.3,57,0.00,,,0.00,WUHU21523XXSP,2013-05-02 23:29:00,
2013-05-02 19:34:00,65.8,50.2,30.26,East,90,14.1,32.4,57,0.00,,,0.00,WUHU21523XXSP,2013-05-02 23:34:00,
2013-05-02 19:39:00,65.5,50.3,30.26,NE,45,28.9,32.4,58,0.00,,,0.00,WUHU21523XXSP,2013-05-02 23:39:00,
2013-05-02 19:44:00,65.5,50.3,30.26,South,180,0.7,28.9,58,0.00,,,0.00,WUHU21523XXSP,2013-05-02 23:44:00,
2013-05-02 19:49:00,65.3,50.1,30.26,SSW,202,0.0,28.9,58,0.00,,,0.00,WUHU21523XXSP,2013-05-02 23:49:00,
2013-05-02 19:54:00,65.1,49.9,30.27,SSW,202,0.0,0.0,58,0.00,,,0.00,WUHU21523XXSP,2013-05-02 23:54:00,
2013-05-02 19:59:00,64.8,49.6,30.27,South,180,12.3,12.3,58,0.00,,,0.00,WUHU21523XXSP,2013-05-02 23:59:00,
2013-05-02 20:04:00,64.6,49.4,30.27,ENE,67,0.0,12.3,58,0.00,,,0.00,WUHU21523XXSP,2013-05-03 00:04:00,
2013-05-02 20:09:00,64.6,49.4,30.27,ENE,67,0.0,12.3,58,0.00,,,0.00,WUHU21523XXSP,2013-05-03 00:09:00,
2013-05-02 20:14:00,64.2,49.0,30.27,SSW,202,15.0,15.0,58,0.00,,,0.00,WUHU21523XXSP,2013-05-03 00:14:00,
2013-05-02 20:19:00,64.2,49.5,30.27,NE,45,0.0,15.0,59,0.00,,,0.00,WUHU21523XXSP,2013-05-03 00:19:00,
2013-05-02 20:24:00,64.0,49.4,30.27,ENE,67,0.0,15.0,59,0.00,,,0.00,WUHU21523XXSP,2013-05-03 00:24:00,
2013-05-02 20:29:00,63.7,49.0,30.27,ENE,67,0.0,0.0,59,0.00,,,0.00,WUHU21523XXSP,2013-05-03 00:29:00,
2013-05-02 20:34:00,63.7,49.0,30.27,South,180,0.0,0.0,59,0.00,,,0.00,WUHU21523XXSP,2013-05-03 00:34:00,
2013-05-02 20:39:00,63.5,48.9,30.27,ENE,67,0.0,0.0,59,0.00,,,0.00,WUHU21523XXSP,2013-05-03 00:39:00,
2013-05-02 20:44:00,63.3,49.2,30.28,NNE,22,0.0,0.7,60,0.00,,,0.00,WUHU21523XXSP,2013-05-03 00:44:00,
2013-05-02 20:49:00,63.1,49.0,30.27,NNE,22,13.0,13.0,60,0.00,,,0.00,WUHU21523XXSP,2013-05-03 00:49:00,
2013-05-02 20:54:00,63.0,48.9,30.28,NNE,22,17.0,17.0,60,0.00,,,0.00,WUHU21523XXSP,2013-05-03 00:54:00,
2013-05-02 20:59:00,62.8,49.1,30.28,South,180,0.0,17.0,61,0.00,,,0.00,WUHU21523XXSP,2013-05-03 00:59:00,
2013-05-02 21:04:00,62.4,48.8,30.28,South,180,14.5,14.5,61,0.00,,,0.00,WUHU21523XXSP,2013-05-03 01:04:00,
2013-05-02 21:09:00,62.4,48.8,30.28,South,180,0.0,14.5,61,0.00,,,0.00,WUHU21523XXSP,2013-05-03 01:09:00,
2013-05-02 21:14:00,62.2,49.1,30.28,SSE,157,0.0,0.0,62,0.00,,,0.00,WUHU21523XXSP,2013-05-03 01:14:00,
2013-05-02 21:19:00,62.2,49.1,30.29,SSE,157,0.0,0.0,62,0.00,,,0.00,WUHU21523XXSP,2013-05-03 01:19:00,
2013-05-02 21:24:00,61.9,48.7,30.29,SSE,157,0.0,0.0,62,0.00,,,0.00,WUHU21523XXSP,2013-05-03 01:24:00,
2013-05-02 21:29:00,61.7,48.6,30.29,SSE,157,0.0,0.0,62,0.00,,,0.00,WUHU21523XXSP,2013-05-03 01:29:00,
2013-05-02 21:34:00,61.5,48.4,30.29,SSE,157,0.0,0.0,62,0.00,,,0.00,WUHU21523XXSP,2013-05-03 01:34:00,
2013-05-02 21:39:00,61.3,48.7,30.29,SSE,157,0.0,0.0,63,0.00,,,0.00,WUHU21523XXSP,2013-05-03 01:39:00,
2013-05-02 21:44:00,61.2,48.5,30.30,SSE,157,0.0,0.0,63,0.00,,,0.00,WUHU21523XXSP,2013-05-03 01:44:00,
2013-05-02 21:49:00,61.0,48.3,30.30,SSE,157,6.7,6.7,63,0.00,,,0.00,WUHU21523XXSP,2013-05-03 01:49:00,
2013-05-02 21:54:00,60.8,48.6,30.30,SSE,157,0.0,6.7,64,0.00,,,0.00,WUHU21523XXSP,2013-05-03 01:54:00,
2013-05-02 21:59:00,60.6,48.4,30.30,SSE,157,0.0,0.0,64,0.00,,,0.00,WUHU21523XXSP,2013-05-03 01:59:00,
2013-05-02 22:04:00,60.6,48.4,30.30,SSE,157,0.0,0.0,64,0.00,,,0.00,WUHU21523XXSP,2013-05-03 02:04:00,
2013-05-02 22:09:00,60.4,48.7,30.30,SSE,157,0.0,0.0,65,0.00,,,0.00,WUHU21523XXSP,2013-05-03 02:09:00,
2013-05-02 22:14:00,60.4,48.7,30.30,SSE,157,0.0,0.0,65,0.00,,,0.00,WUHU21523XXSP,2013-05-03 02:14:00,
2013-05-02 22:19:00,60.1,48.3,30.30,SSE,157,0.0,0.0,65,0.00,,,0.00,WUHU21523XXSP,2013-05-03 02:19:00,
2013-05-02 22:24:00,59.9,48.5,30.30,SSE,157,0.0,0.0,66,0.00,,,0.00,WUHU21523XXSP,2013-05-03 02:24:00,
2013-05-02 22:29:00,59.7,48.3,30.30,SSW,202,0.2,0.2,66,0.00,,,0.00,WUHU21523XXSP,2013-05-03 02:29:00,
2013-05-02 22:34:00,59.5,48.2,30.30,SSW,202,0.0,0.2,66,0.00,,,0.00,WUHU21523XXSP,2013-05-03 02:34:00,
2013-05-02 22:39:00,59.5,48.2,30.31,SSW,202,0.0,0.2,66,0.00,,,0.00,WUHU21523XXSP,2013-05-03 02:39:00,
2013-05-02 22:44:00,59.5,48.2,30.30,SSW,202,0.0,0.0,66,0.00,,,0.00,WUHU21523XXSP,2013-05-03 02:44:00,
2013-05-02 22:49:00,59.4,48.0,30.30,SSW,202,0.0,0.0,66,0.00,,,0.00,WUHU21523XXSP,2013-05-03 02:49:00,
2013-05-02 22:54:00,59.4,48.4,30.30,SE,135,0.9,0.9,67,0.00,,,0.00,WUHU21523XXSP,2013-05-03 02:54:00,
2013-05-02 22:59:00,59.2,48.2,30.30,SE,135,0.0,0.9,67,0.00,,,0.00,WUHU21523XXSP,2013-05-03 02:59:00,
2013-05-02 23:04:00,59.0,48.0,30.30,SE,135,0.0,0.0,67,0.00,,,0.00,WUHU21523XXSP,2013-05-03 03:04:00,
2013-05-02 23:09:00,58.8,47.9,30.30,SE,135,0.0,0.0,67,0.00,,,0.00,WUHU21523XXSP,2013-05-03 03:09:00,
2013-05-02 23:14:00,58.8,47.9,30.30,SE,135,0.0,0.0,67,0.00,,,0.00,WUHU21523XXSP,2013-05-03 03:14:00,
2013-05-02 23:19:00,58.8,47.9,30.30,SE,135,0.0,0.0,67,0.00,,,0.00,WUHU21523XXSP,2013-05-03 03:19:00,
2013-05-02 23:24:00,58.5,47.1,30.30,SE,135,0.0,0.0,66,0.00,,,0.00,WUHU21523XXSP,2013-05-03 03:24:00,
2013-05-02 23:29:00,58.3,46.9,30.29,SW,225,0.0,0.0,66,0.00,,,0.00,WUHU21523XXSP,2013-05-03 03:29:00,
2013-05-02 23:34:00,58.3,46.9,30.29,SW,225,0.0,0.0,66,0.00,,,0.00,WUHU21523XXSP,2013-05-03 03:34:00,
2013-05-02 23:39:00,58.1,46.8,30.29,SW,225,0.0,0.0,66,0.00,,,0.00,WUHU21523XXSP,2013-05-03 03:39:00,
2013-05-02 23:44:00,57.9,46.6,30.29,WNW,292,0.0,0.0,66,0.00,,,0.00,WUHU21523XXSP,2013-05-03 03:44:00,
2013-05-02 23:49:00,57.9,46.6,30.29,South,180,0.0,0.0,66,0.00,,,0.00,WUHU21523XXSP,2013-05-03 03:49:00,
2013-05-02 23:54:00,57.7,46.4,30.29,SSE,157,0.0,0.0,66,0.00,,,0.00,WUHU21523XXSP,2013-05-03 03:54:00,
2013-05-02 23:59:00,57.7,46.4,30.29,SSE,157,0.0,0.0,66,0.00,,,0.00,WUHU21523XXSP,2013-05-03 03:59:00,